time_stamp(utc),avg(mph),gust(mph),direction(deg),12m_air_temp(f),sonic_u(cm/s),sonic_v(cm/s),sonic_w(cm/s),pressure,2m_air_temp(f),pyranometer(W/m^2)
"2018-11-09 00:02:07+00",0.0,0.0,,51.9,31,153,0,1024.61,49.6,0
"2018-11-09 00:07:07+00",0.0,0.0,,51.9,76,114,1,1024.68,49.7,0
"2018-11-09 00:12:07+00",0.0,0.0,,51.9,56,107,-1,1024.68,49.6,0
"2018-11-09 00:17:07+00",0.0,0.0,,51.8,54,89,2,1024.7,49.4,0
"2018-11-09 00:22:07+00",0.0,0.0,,51.8,115,132,2,1024.52,49.5,0
"2018-11-09 00:27:07+00",0.0,0.0,,51.8,121,134,-1,1024.42,49.2,0
"2018-11-09 00:32:07+00",0.0,0.0,,51.7,115,147,3,1024.47,49,0
"2018-11-09 00:37:07+00",0.0,0.0,,51.6,70,155,0,1024.55,49.1,0
"2018-11-09 00:42:07+00",2.5,5.5,,51.5,111,147,4,1024.5,49.3,0
"2018-11-09 00:47:07+00",5.3,5.3,,51.5,118,190,1,1024.4,49.2,0
"2018-11-09 00:52:07+00",6.2,6.2,,51.6,109,236,-1,1024.32,49.1,0
"2018-11-09 00:57:07+00",5.9,6.9,,51.6,97,223,0,1024.4,49,0
"2018-11-09 01:02:07+00",5.6,6.6,,51.7,92,213,1,1024.52,48.8,0
"2018-11-09 01:07:07+00",5.4,5.4,,51.7,67,193,-3,1024.51,48.8,0
"2018-11-09 01:12:07+00",4.7,4.7,,51.7,41,189,3,1024.47,48.7,0
"2018-11-09 01:17:07+00",4.8,4.8,,51.4,44,197,0,1024.56,48.7,0
"2018-11-09 01:22:07+00",4.9,4.9,,51.4,81,185,1,1024.54,48.6,0
"2018-11-09 01:27:07+00",4.7,4.7,,51.1,21,196,4,1024.52,48.4,0
"2018-11-09 01:32:07+00",4.7,4.7,,51,61,175,-2,1024.53,48.2,0
"2018-11-09 01:37:07+00",4.3,4.3,,50.8,7,178,2,1024.71,47.9,0
"2018-11-09 01:42:07+00",3.6,3.6,,50.6,24,149,4,1024.8,47.8,0
"2018-11-09 01:47:07+00",4.3,4.3,,50.6,58,157,-1,1024.7,47.7,0
"2018-11-09 01:52:07+00",4.3,4.3,,50.7,49,163,1,1024.86,47.7,0
"2018-11-09 01:57:07+00",3.5,3.5,,50.7,33,136,2,1024.95,47.7,0
"2018-11-09 02:02:07+00",2.7,3.7,,50.5,48,100,0,1024.97,47.8,0
"2018-11-09 02:07:07+00",2.5,2.5,,50.5,48,91,2,1025.14,47.9,0
"2018-11-09 02:12:07+00",3.0,3.0,,50.5,44,108,0,1025.16,47.9,0
"2018-11-09 02:17:07+00",3.6,3.6,,50.6,-9,147,7,1025.37,47.9,0
"2018-11-09 02:22:07+00",3.8,3.8,,50.5,22,155,4,1025.22,47.9,0
"2018-11-09 02:27:07+00",3.8,3.8,,50.4,-21,153,4,1025.2,47.9,0
"2018-11-09 02:32:07+00",4.3,4.3,,50.4,12,176,2,1025.15,47.7,0
"2018-11-09 02:37:07+00",5.2,5.2,,50.5,-44,218,9,1025.28,47.5,0
"2018-11-09 02:42:07+00",6.2,7.2,,50.2,-40,260,6,1025.28,47.3,0
"2018-11-09 02:47:07+00",6.5,7.5,,50.4,-20,273,9,1025.26,47,0
"2018-11-09 02:52:07+00",6.2,6.2,,50.5,6,256,3,1025.24,46.8,0
"2018-11-09 02:57:07+00",5.9,6.9,,50.7,-14,247,13,1025.41,46.6,0
"2018-11-09 03:02:07+00",5.9,6.9,,50.3,-4,254,5,1025.31,46.6,0
"2018-11-09 03:07:07+00",9.0,9.0,,50.6,31,386,5,1025.11,46.5,0
"2018-11-09 03:12:07+00",10.7,10.7,,50.3,-12,466,20,1025.01,46.4,0
"2018-11-09 03:17:07+00",8.7,9.7,,49.8,-48,376,5,1025.14,46.4,0
"2018-11-09 03:22:07+00",8.5,9.5,,49.2,-94,361,14,1025.28,46.5,0
"2018-11-09 03:27:07+00",9.5,12.5,,48.7,-30,415,12,1025.28,46.5,0
"2018-11-09 03:32:07+00",11.5,12.5,,48.2,48,497,14,1025.29,46.3,0
"2018-11-09 03:37:07+00",10.7,12.7,,48,167,414,2,1025.18,46.3,0
"2018-11-09 03:42:07+00",11.6,13.6,,47.8,205,444,1,1025.43,46.3,0
"2018-11-09 03:47:07+00",12.1,14.1,,47.6,243,452,10,1025.36,46.3,0
"2018-11-09 03:52:07+00",12.3,15.3,,47.9,281,449,10,1025.36,46.4,0
"2018-11-09 03:57:07+00",13.7,16.7,,48,305,500,13,1025.43,46.5,0
"2018-11-09 04:02:07+00",15.0,18.0,,47.9,361,536,2,1025.29,46.6,0
"2018-11-09 04:07:07+00",15.7,18.7,,48,362,573,6,1025.21,46.6,0
"2018-11-09 04:12:07+00",13.9,16.9,,47.8,327,506,11,1025.4,46.5,0
"2018-11-09 04:17:07+00",13.5,16.5,,47.9,302,499,9,1025.27,46.5,0
"2018-11-09 04:22:07+00",13.0,16.0,,47.8,219,499,2,1025.37,46.5,0
"2018-11-09 04:27:07+00",14.2,16.2,,47.7,287,544,3,1025.38,46.4,0
"2018-11-09 04:32:07+00",13.6,17.6,,47.5,231,550,-6,1025.41,46.3,0
"2018-11-09 04:37:07+00",13.5,17.5,,47.3,240,521,15,1025.5,46.2,0
"2018-11-09 04:42:07+00",14.4,16.4,,47.1,253,559,2,1025.51,46.1,0
"2018-11-09 04:47:07+00",14.6,17.6,,47,260,564,-3,1025.62,45.9,0
"2018-11-09 04:52:07+00",13.5,15.5,,46.9,219,520,8,1025.6,45.9,0
"2018-11-09 04:57:07+00",13.6,16.6,,46.8,223,525,5,1025.52,45.7,0
"2018-11-09 05:02:07+00",13.9,19.9,,46.6,244,533,-5,1025.6,45.6,0
"2018-11-09 05:07:07+00",13.7,19.7,,46.6,244,526,22,1025.58,45.6,0
"2018-11-09 05:12:07+00",14.7,16.7,,46.6,269,572,-4,1025.6,45.5,0
"2018-11-09 05:17:07+00",12.7,16.7,,46.5,220,483,3,1025.67,45.5,0
"2018-11-09 05:22:07+00",14.5,18.5,,46.4,264,558,-3,1025.64,45.4,0
"2018-11-09 05:27:07+00",13.9,18.9,,46.5,220,548,1,1025.57,45.4,0
"2018-11-09 05:32:07+00",13.2,15.2,,46.3,169,539,4,1025.56,45.3,0
"2018-11-09 05:37:07+00",11.7,15.7,,46.2,162,466,31,1025.52,45.2,0
"2018-11-09 05:42:07+00",13.5,17.5,,46.3,193,537,7,1025.35,45.2,0
"2018-11-09 05:47:07+00",14.2,16.2,,46.1,209,564,-1,1025.36,45.1,0
"2018-11-09 05:52:07+00",16.2,19.2,,45.9,220,646,-9,1025.39,45,0
"2018-11-09 05:57:07+00",14.3,17.3,,45.7,172,571,-5,1025.42,44.8,0
"2018-11-09 06:02:07+00",13.2,16.2,,45.5,190,532,-7,1025.24,44.7,0
"2018-11-09 06:07:07+00",15.7,18.7,,45.6,234,609,5,1025.2,44.7,0
"2018-11-09 06:12:07+00",15.8,17.8,,45.5,247,612,-8,1025.27,44.7,0
"2018-11-09 06:17:07+00",15.7,19.7,,45.7,248,610,-3,1025.22,44.8,0
"2018-11-09 06:22:07+00",15.5,19.5,,45.7,237,599,3,1025.23,44.8,0
"2018-11-09 06:27:07+00",14.2,18.2,,45.7,283,539,-6,1025.22,44.8,0
"2018-11-09 06:32:07+00",14.8,17.8,,45.7,272,577,1,1025.09,44.8,0
"2018-11-09 06:37:07+00",14.2,19.2,,45.6,239,546,5,1025.15,44.8,0
"2018-11-09 06:42:07+00",13.9,16.9,,45.7,258,522,4,1025.16,44.8,0
"2018-11-09 06:47:07+00",13.1,17.1,,45.9,206,508,6,1025.11,44.9,0
"2018-11-09 06:52:07+00",13.7,17.7,,46.1,214,533,4,1025.09,45.1,0
"2018-11-09 06:57:07+00",13.7,17.7,,46.2,229,523,-3,1025.06,45.2,0
"2018-11-09 07:02:07+00",14.2,16.2,,46.2,282,542,-5,1025.01,45.2,0
"2018-11-09 07:07:07+00",13.4,14.4,,46.6,302,494,7,1024.96,45.4,0
"2018-11-09 07:12:07+00",11.0,13.0,,46.6,290,356,13,1024.79,45.5,0
"2018-11-09 07:17:07+00",21.3,24.3,,49.1,818,479,41,1024.72,46.6,0
"2018-11-09 07:22:07+00",19.5,22.5,,49.8,732,459,54,1024.69,48,0
"2018-11-09 07:27:07+00",20.6,22.6,,50,770,498,36,1024.65,48.5,0
"2018-11-09 07:32:07+00",19.4,23.4,,50,757,409,41,1024.7,48.7,0
"2018-11-09 07:37:07+00",18.6,20.6,,50.1,667,478,41,1024.6,48.9,0
"2018-11-09 07:42:07+00",21.2,24.2,,50.1,823,484,40,1024.62,49,0
"2018-11-09 07:47:07+00",19.7,21.7,,50.2,755,452,29,1024.68,49.1,0
"2018-11-09 07:52:07+00",19.2,22.2,,50.2,704,477,34,1024.64,49.1,0
"2018-11-09 07:57:07+00",19.6,23.6,,50.2,770,416,19,1024.73,49,0
"2018-11-09 08:02:07+00",19.7,22.7,,50.2,811,371,47,1024.76,49.1,0
"2018-11-09 08:07:07+00",16.6,19.6,,50.1,672,326,48,1024.61,49,0
"2018-11-09 08:12:07+00",18.6,21.6,,50.2,792,309,36,1024.64,49,0
"2018-11-09 08:17:07+00",20.8,23.8,,50.3,841,414,29,1024.64,49.1,0
"2018-11-09 08:22:07+00",19.6,23.6,,50.3,804,356,18,1024.71,49.1,0
"2018-11-09 08:27:07+00",18.5,23.5,,50.3,779,314,47,1024.71,49.2,0
"2018-11-09 08:32:07+00",21.3,25.3,,50.2,844,454,33,1024.63,49.2,0
"2018-11-09 08:37:07+00",19.3,23.3,,50.4,779,368,28,1024.71,49.2,0
"2018-11-09 08:42:07+00",16.6,18.6,,50.4,665,328,28,1025.04,49.3,0
"2018-11-09 08:47:07+00",15.9,20.9,,50.4,635,319,37,1025.02,49.4,0
"2018-11-09 08:52:07+00",16.4,19.4,,50.4,653,334,26,1025.03,49.4,0
"2018-11-09 08:57:07+00",16.2,19.2,,50.4,641,321,53,1025,49.4,0
"2018-11-09 09:02:07+00",17.5,19.5,,50.3,723,318,24,1024.95,49.2,0
"2018-11-09 09:07:07+00",16.2,19.2,,50.2,688,261,43,1024.62,49.1,0
"2018-11-09 09:12:07+00",16.0,18.0,,50.2,684,261,43,1024.77,49.1,0
"2018-11-09 09:17:07+00",16.7,19.7,,50.3,700,279,26,1024.68,49.1,0
"2018-11-09 09:22:07+00",19.2,23.2,,50.4,837,266,37,1024.76,49.1,0
"2018-11-09 09:27:07+00",19.8,22.8,,50.4,873,196,29,1024.81,49.2,0
"2018-11-09 09:32:07+00",16.8,19.8,,50.5,740,129,46,1024.88,49.2,0
"2018-11-09 09:37:07+00",17.7,20.7,,50.5,775,223,60,1024.98,49.3,0
"2018-11-09 09:42:07+00",19.1,21.1,,50.4,837,224,48,1024.81,49.3,0
"2018-11-09 09:47:07+00",19.7,22.7,,50.5,872,168,55,1024.71,49.3,0
"2018-11-09 09:52:07+00",19.7,22.7,,50.5,844,305,24,1024.72,49.3,0
"2018-11-09 09:57:07+00",14.5,16.5,,50.4,641,130,47,1024.98,49.3,0
"2018-11-09 10:02:07+00",18.0,20.0,,50.5,786,197,44,1025.01,49.3,0
"2018-11-09 10:07:07+00",19.2,22.2,,50.5,846,201,48,1024.63,49.3,0
"2018-11-09 10:12:07+00",18.1,21.1,,50.4,798,234,54,1024.52,49.3,0
"2018-11-09 10:17:07+00",16.5,19.5,,50.4,722,206,69,1024.6,49.3,0
"2018-11-09 10:22:07+00",18.2,21.2,,50.4,792,222,52,1024.45,49.3,0
"2018-11-09 10:27:07+00",20.3,24.3,,50.5,882,258,43,1024.29,49.4,0
"2018-11-09 10:32:07+00",19.0,22.0,,50.5,854,139,54,1024.38,49.5,0
"2018-11-09 10:37:07+00",20.3,23.3,,50.5,898,214,43,1024.23,49.5,0
"2018-11-09 10:42:07+00",15.9,20.9,,50.4,687,153,39,1024.25,49.5,0
"2018-11-09 10:47:07+00",18.7,22.7,,50.5,840,123,27,1024.39,49.4,0
"2018-11-09 10:52:07+00",20.4,25.4,,50.5,902,169,44,1024.31,49.4,0
"2018-11-09 10:57:07+00",21.4,25.4,,50.5,941,223,57,1024.21,49.5,0
"2018-11-09 11:02:07+00",17.3,20.3,,50.4,756,206,58,1024.64,49.4,0
"2018-11-09 11:07:07+00",20.3,24.3,,50.5,927,48,45,1024.55,49.5,0
"2018-11-09 11:12:07+00",20.1,24.1,,50.5,884,211,46,1024.38,49.5,0
"2018-11-09 11:17:07+00",18.2,22.2,,50.4,809,144,57,1024.38,49.5,0
"2018-11-09 11:22:07+00",17.0,19.0,,50.3,714,273,57,1024.33,49.5,0
"2018-11-09 11:27:07+00",19.6,22.6,,50.6,856,205,33,1024.18,49.6,0
"2018-11-09 11:32:07+00",19.2,25.2,,50.5,843,175,68,1024.18,49.7,0
"2018-11-09 11:37:07+00",21.5,24.5,,50.8,951,152,41,1024.33,49.8,0
"2018-11-09 11:42:07+00",22.9,25.9,,50.8,1010,195,37,1024.15,49.9,0
"2018-11-09 11:47:07+00",17.9,19.9,,50.7,790,204,47,1024.24,49.8,0
"2018-11-09 11:52:07+00",21.0,24.0,,50.9,929,212,42,1024.04,50,0
"2018-11-09 11:57:07+00",15.0,17.0,,50.9,672,54,69,1024.18,50.1,0
"2018-11-09 12:02:07+00",19.7,22.7,,51.1,871,72,47,1024.16,50.2,0
"2018-11-09 12:07:07+00",17.0,20.0,,51.1,757,40,28,1024.35,50.3,0
"2018-11-09 12:12:07+00",21.1,24.1,,51.2,945,121,40,1024.12,50.4,0
"2018-11-09 12:17:07+00",19.4,21.4,,51.2,861,153,62,1024.11,50.6,0
"2018-11-09 12:22:07+00",22.7,26.7,,51.4,1023,27,42,1023.91,50.7,2.2
"2018-11-09 12:27:07+00",22.8,25.8,,51.5,1027,65,38,1023.8,51,10.4
"2018-11-09 12:32:07+00",22.5,25.5,,51.6,1017,26,44,1023.72,51.3,8.6
"2018-11-09 12:37:07+00",21.0,24.0,,51.6,938,107,68,1023.78,51.3,7.1
"2018-11-09 12:42:07+00",24.3,26.3,,51.7,1087,106,46,1023.87,51.4,8.3
"2018-11-09 12:47:07+00",21.7,24.7,,51.7,965,62,72,1023.77,51.5,4.5
"2018-11-09 12:52:07+00",20.2,23.2,,51.8,901,82,70,1023.68,51.6,13.6
"2018-11-09 12:57:07+00",23.6,28.6,,51.9,1066,33,38,1023.55,51.7,21.5
"2018-11-09 13:02:07+00",22.1,25.1,,51.9,986,123,54,1023.6,51.9,24.1
"2018-11-09 13:07:07+00",22.6,25.6,,52.1,1006,-89,25,1023.44,52,18.2
"2018-11-09 13:12:07+00",21.7,23.7,,52,967,40,61,1023.48,52,18.8
"2018-11-09 13:17:07+00",23.7,28.7,,52.1,1076,5,12,1023.5,52.1,20
"2018-11-09 13:22:07+00",23.7,25.7,,52.2,1072,-25,35,1023.55,52.2,27.8
"2018-11-09 13:27:07+00",23.2,26.2,,52.2,1045,-71,28,1023.54,52.2,25.9
"2018-11-09 13:32:07+00",20.4,23.4,,52.3,915,34,35,1023.57,52.3,27.4
"2018-11-09 13:37:07+00",18.7,22.7,,52.4,831,-90,21,1023.69,52.4,47.5
"2018-11-09 13:42:07+00",20.2,23.2,,52.6,882,-169,34,1023.65,52.7,42.1
"2018-11-09 13:47:07+00",22.4,24.4,,52.4,1003,28,45,1023.75,52.7,36.1
"2018-11-09 13:52:07+00",23.3,26.3,,52.3,1034,-109,30,1023.65,52.6,23.5
"2018-11-09 13:57:07+00",23.4,26.4,,52.4,1031,-214,15,1023.45,52.6,26.9
"2018-11-09 14:02:07+00",20.5,24.5,,52.7,911,-141,37,1023.48,52.8,38.1
"2018-11-09 14:07:07+00",19.2,22.2,,52.6,828,-221,18,1023.7,52.9,31.8
"2018-11-09 14:12:07+00",21.7,23.7,,52.6,975,-46,35,1023.7,52.9,22
"2018-11-09 14:17:07+00",22.2,26.2,,52.7,978,-155,17,1023.44,53,36.9
"2018-11-09 14:22:07+00",22.0,25.0,,52.9,940,-290,16,1023.32,53.1,49.6
"2018-11-09 14:27:07+00",21.7,23.7,,52.8,967,-79,37,1023.1,53.2,39.4
"2018-11-09 14:32:07+00",22.4,25.4,,53,973,-257,11,1023.17,53.3,34.6
"2018-11-09 14:37:07+00",23.0,25.0,,52.9,982,-281,29,1022.97,53.2,30
"2018-11-09 14:42:07+00",24.7,26.7,,52.9,1071,-268,2,1023.1,53.1,22.5
"2018-11-09 14:47:07+00",23.4,26.4,,52.9,1039,-175,26,1023.11,53.1,11.2
"2018-11-09 14:52:07+00",21.3,24.3,,52.9,881,-338,8,1023.23,53.1,16.4
"2018-11-09 14:57:07+00",20.2,23.2,,53,870,-251,19,1023.21,53.1,39.3
"2018-11-09 15:02:07+00",21.0,23.0,,53.1,862,-364,-2,1023.15,53.4,46.1
"2018-11-09 15:07:07+00",22.7,24.7,,53.1,911,-437,-5,1023.15,53.4,23.4
"2018-11-09 15:12:07+00",20.0,23.0,,53,821,-336,5,1023.01,53.3,36.4
"2018-11-09 15:17:07+00",21.3,25.3,,53.1,909,-265,20,1022.99,53.3,21
"2018-11-09 15:22:07+00",20.0,24.0,,53.2,795,-383,16,1023.15,53.3,28.7
"2018-11-09 15:27:07+00",22.7,25.7,,53.1,906,-428,2,1023.16,53.2,36.9
"2018-11-09 15:32:07+00",19.8,22.8,,53.1,713,-488,-8,1023.28,53.2,36.8
"2018-11-09 15:37:07+00",20.0,22.0,,53.2,766,-450,-1,1023.25,53.3,20.2
"2018-11-09 15:42:07+00",18.6,21.6,,53.2,691,-436,19,1022.95,53.3,39
"2018-11-09 15:47:07+00",20.7,23.7,,53.2,800,-462,0,1022.78,53.2,34.3
"2018-11-09 15:52:07+00",22.3,24.3,,53.2,886,-426,-8,1022.58,53.2,44.7
"2018-11-09 15:57:07+00",20.6,23.6,,53.5,749,-513,3,1022.37,53.5,58.2
"2018-11-09 16:02:07+00",21.0,24.0,,53.4,852,-368,0,1022.13,53.6,56.6
"2018-11-09 16:07:07+00",18.5,20.5,,53.6,748,-350,15,1021.95,53.8,69
"2018-11-09 16:12:07+00",20.2,24.2,,53.7,819,-370,25,1021.72,53.9,75.2
"2018-11-09 16:17:07+00",23.1,25.1,,53.7,908,-460,20,1021.37,54,91.5
"2018-11-09 16:22:07+00",18.4,21.4,,53.8,686,-450,23,1021.13,54,55.5
"2018-11-09 16:27:07+00",23.9,27.9,,53.8,970,-432,8,1020.58,54,53.5
"2018-11-09 16:32:07+00",19.9,21.9,,53.9,780,-427,32,1020.53,54.1,60
"2018-11-09 16:37:07+00",22.7,25.7,,53.9,878,-505,1,1020.52,54.1,36.5
"2018-11-09 16:42:07+00",22.0,25.0,,53.9,892,-404,22,1020.25,54,58
"2018-11-09 16:47:07+00",23.4,25.4,,53.9,822,-624,9,1020.05,54.2,76.2
"2018-11-09 16:52:07+00",19.3,23.3,,54.1,742,-435,-5,1020.17,54.3,30.3
"2018-11-09 16:57:07+00",20.7,23.7,,54,775,-496,1,1020.18,54.2,26.1
"2018-11-09 17:02:07+00",20.1,22.1,,54,753,-488,8,1020.14,54.1,15.8
"2018-11-09 17:07:07+00",21.5,23.5,,54.2,833,-459,9,1019.93,54.2,18.4
"2018-11-09 17:12:07+00",20.2,23.2,,54.2,767,-479,6,1019.96,54.2,21.9
"2018-11-09 17:17:07+00",18.5,20.5,,54.4,714,-424,-3,1019.81,54.3,28.4
"2018-11-09 17:22:07+00",20.4,23.4,,54.4,804,-396,12,1019.87,54.4,13
"2018-11-09 17:27:07+00",21.0,24.0,,54.5,781,-517,-7,1019.57,54.4,31.9
"2018-11-09 17:32:07+00",20.4,22.4,,54.4,826,-390,10,1019.55,54.3,13.2
"2018-11-09 17:37:07+00",21.5,25.5,,54.3,875,-407,3,1019.1,54.1,30
"2018-11-09 17:42:07+00",20.1,23.1,,54.5,827,-350,1,1019.19,54.3,20.6
"2018-11-09 17:47:07+00",19.1,22.1,,54.4,779,-353,21,1018.98,54.3,21.5
"2018-11-09 17:52:07+00",19.5,21.5,,54.6,781,-382,10,1019.13,54.2,3.1
"2018-11-09 17:57:07+00",19.8,23.8,,54.8,849,-278,-7,1018.97,54.4,11.3
"2018-11-09 18:02:07+00",17.7,20.7,,55.1,712,-333,31,1018.62,54.8,92.1
"2018-11-09 18:07:07+00",20.4,24.4,,55.4,817,-411,3,1018.34,55.3,41.1
"2018-11-09 18:12:07+00",24.8,29.8,,55.4,969,-547,-14,1017.9,55.4,58.4
"2018-11-09 18:17:07+00",26.0,29.0,,55.3,1052,-465,12,1017.89,55.4,46
"2018-11-09 18:22:07+00",24.5,28.5,,55.4,1010,-415,6,1017.83,55.3,40.4
"2018-11-09 18:27:07+00",24.1,29.1,,55.6,960,-465,2,1017.79,55.5,60.5
"2018-11-09 18:32:07+00",20.6,23.6,,55.6,846,-339,17,1017.58,55.6,21.3
"2018-11-09 18:37:07+00",23.9,27.9,,55.6,998,-374,5,1017.32,55.5,0.1
"2018-11-09 18:42:07+00",24.5,27.5,,55.7,1008,-401,-4,1017.14,55.5,7.4
"2018-11-09 18:47:07+00",28.4,32.4,,55.8,1149,-476,-5,1016.88,55.5,7.5
"2018-11-09 18:52:07+00",26.1,30.1,,55.9,1053,-483,-1,1016.82,55.6,0
"2018-11-09 18:57:07+00",28.7,32.7,,56,1196,-452,7,1016.43,55.6,0.1
"2018-11-09 19:02:07+00",23.7,27.7,,55.8,962,-442,10,1016.53,55.5,0
"2018-11-09 19:07:07+00",26.2,28.2,,55.8,1093,-385,-4,1016.3,55.4,0.1
"2018-11-09 19:12:07+00",27.7,33.7,,56,1129,-469,-7,1016.11,55.6,0.1
"2018-11-09 19:17:07+00",25.4,29.4,,56.2,1061,-363,1,1015.98,55.8,0
"2018-11-09 19:22:07+00",26.5,31.5,,56.2,1129,-334,8,1015.75,55.8,0
"2018-11-09 19:27:07+00",23.0,31.0,,56.3,966,-360,21,1015.6,55.9,0
"2018-11-09 19:32:07+00",28.2,33.2,,56.4,1159,-481,-9,1015.42,55.9,0
"2018-11-09 19:37:07+00",26.1,30.1,,56.4,1092,-385,16,1015.09,56,0
"2018-11-09 19:42:07+00",24.0,30.0,,56.4,1026,-317,-1,1014.98,56.1,0
"2018-11-09 19:47:07+00",28.1,35.1,,56.6,1147,-477,-3,1014.7,56.2,0
"2018-11-09 19:52:07+00",21.1,25.1,,56.6,874,-366,23,1014.85,56.3,0
"2018-11-09 19:57:07+00",25.8,32.8,,56.6,1087,-390,27,1014.53,56.2,0
"2018-11-09 20:02:07+00",27.8,30.8,,56.5,1158,-402,5,1014.49,56.1,0
"2018-11-09 20:07:07+00",26.8,31.8,,56.6,1095,-461,1,1014.47,56,0
"2018-11-09 20:12:07+00",27.2,32.2,,56.7,1088,-526,22,1014.35,56,0
"2018-11-09 20:17:07+00",26.3,32.3,,56.6,1070,-456,13,1014.15,55.8,0
"2018-11-09 20:22:07+00",27.9,31.9,,56.7,1136,-463,8,1014.04,55.9,0
"2018-11-09 20:27:07+00",29.1,33.1,,56.7,1164,-537,-6,1013.87,56,0
"2018-11-09 20:32:07+00",28.1,32.1,,56.9,1126,-526,-15,1013.6,56.1,0
"2018-11-09 20:37:07+00",24.6,28.6,,56.9,984,-493,6,1013.59,56.2,0
"2018-11-09 20:42:07+00",28.5,34.5,,57,1104,-584,7,1013.51,56.1,0
"2018-11-09 20:47:07+00",26.0,32.0,,57,1035,-465,17,1013.29,56.3,0
"2018-11-09 20:52:07+00",26.7,29.7,,57.1,1075,-456,12,1012.98,56.3,0
"2018-11-09 20:57:07+00",26.4,30.4,,57.1,1023,-568,6,1012.84,56.3,0
"2018-11-09 21:02:07+00",27.5,31.5,,57.1,1089,-520,-2,1012.57,56.3,0
"2018-11-09 21:07:07+00",28.2,35.2,,57.1,1129,-528,7,1012.47,56.3,0
"2018-11-09 21:12:07+00",27.7,31.7,,57.2,1120,-551,-22,1012.4,56.4,0
"2018-11-09 21:17:07+00",27.9,30.9,,57.5,856,-590,128,1012.29,56.6,0
"2018-11-09 21:22:07+00",24.1,28.1,,57.5,927,-520,6,1012.27,56.8,0
"2018-11-09 21:27:07+00",27.7,30.7,,57.6,956,-572,87,1012.1,56.9,0
"2018-11-09 21:32:07+00",27.1,32.1,,57.8,950,-612,37,1012.13,57,0
"2018-11-09 21:37:07+00",20.4,23.4,,57.7,766,-482,16,1012.01,57,0
"2018-11-09 21:42:07+00",25.3,30.3,,57.7,952,-566,27,1011.85,56.9,0
"2018-11-09 21:47:07+00",27.0,30.0,,57.8,651,-583,245,1011.81,56.8,0
"2018-11-09 21:52:07+00",22.4,26.4,,57.8,774,-535,33,1011.59,56.9,0
"2018-11-09 21:57:07+00",22.9,25.9,,57.8,803,-174,326,1011.49,56.9,0
"2018-11-09 22:02:07+00",26.8,29.8,,57.1,674,-280,444,1011.3,56.8,0
"2018-11-09 22:07:07+00",26.7,29.7,,56.9,676,-58,613,1011.13,56.7,0
"2018-11-09 22:12:07+00",23.4,29.4,,57,859,-127,367,1010.97,56.7,0
"2018-11-09 22:17:07+00",29.8,34.8,,57.4,688,-577,380,1010.91,56.7,0
"2018-11-09 22:22:07+00",31.5,34.5,,57.5,1031,-347,458,1010.55,56.6,0
"2018-11-09 22:27:07+00",31.0,36.0,,57.7,663,-724,281,1010.32,56.8,0
"2018-11-09 22:32:07+00",30.5,35.5,,57.8,540,-551,487,1010.19,56.8,0
"2018-11-09 22:37:07+00",30.7,35.7,,57.8,786,-573,331,1009.79,56.9,0
"2018-11-09 22:42:07+00",29.3,35.3,,57.7,906,-546,275,1009.65,56.9,0
"2018-11-09 22:47:07+00",31.0,36.0,,57.7,685,-658,345,1009.48,56.9,0
"2018-11-09 22:52:07+00",29.3,35.3,,57.7,689,-672,296,1009.17,56.9,0
"2018-11-09 22:57:07+00",28.6,32.6,,57.8,824,-670,178,1009.07,57,0
"2018-11-09 23:02:07+00",26.6,35.6,,58.2,999,-432,208,1009.07,57.2,0
"2018-11-09 23:07:07+00",33.5,38.5,,58.5,1004,-897,141,1008.68,57.3,0
"2018-11-09 23:12:07+00",30.1,36.1,,58.6,870,-713,209,1008.53,57.5,0
"2018-11-09 23:17:07+00",28.3,33.3,,58.6,834,-727,178,1008.69,57.6,0
"2018-11-09 23:22:07+00",30.4,37.4,,58.7,788,-892,139,1008.8,57.7,0
"2018-11-09 23:27:07+00",11.5,16.5,,58.8,-245,-396,5,1011.12,57.9,0
"2018-11-09 23:32:07+00",23.1,27.1,,57.4,-1299,471,-278,1011.86,57,0
"2018-11-09 23:37:07+00",10.7,11.7,,56.8,382,281,3,1010.95,56.5,0
"2018-11-09 23:42:07+00",9.8,10.8,,56.7,383,214,8,1010.37,56.3,0
"2018-11-09 23:47:07+00",4.7,5.7,,56.3,185,38,3,1010.36,56.2,0
"2018-11-09 23:52:07+00",9.2,12.2,,56.2,44,392,22,1009.96,56.1,0
"2018-11-09 23:57:07+00",10.9,11.9,,56,392,271,18,1010.18,55.9,0
